Tracking 20093 objects as of 14-Dec-2019
HD Live streaming from Space Station
objects crossing your sky now

COSMOS 2251 DEB

Track COSMOS 2251 DEB now!
10-day predictions


NORAD ID: 33822
Int'l Code: 1993-036BP
Perigee: 762.3 km
Apogee: 1,029.5 km
Inclination: 74.1 °
Period: 102.8 minutes
Semi major axis: 7266 km
RCS: 0.037 m2 (small)
Launch date: June 16, 1993
Source: Commonwealth of Independent States (former USSR) (CIS)
Launch site: PLESETSK MISSILE AND SPACE COMPLEX (PKMTR)

Note: This is SATELLITE DEBRIS
aabbcc
Your satellite tracking list
Your tracking list is empty




NASA's NSSDC Master Catalog

Two Line Element Set (TLE):
1 33822U 93036BP  19347.64297726 +.00000116 +00000-0 +80991-4 0  9995
2 33822 074.0803 048.8677 0183873 267.8719 247.7815 14.01451123552820
Source of the keplerian elements: AFSPC